Aeroporto :
LOGIN :

Iscrizione | Disclaimer

   EN    FR    IT 

 










Sommario :    VFR   VFR Marginale   IFR   IFR Intensivo   IFR Molto Intensivo
Visibilità : 
Base nubi : 
>= 8 km
>= 3000ft
5 / 8 km
1000 / 3000 ft
1500m / 5 km
500 / 1000 ft
800 / 1500m
200 / 500 ft
< 800m
< 200 ft
Simboli :   Temporali  Nebbia  Neve Forte  Precipitazioni Forti  Vento > 20 kt
SIGMETs :   Varie  Temporali  Ghiacco  Turbolenza  Onda orograficha  Ceneri Vulcaniche







- Altitudine del aeroporto : 11 ft
- Codice IATA : MJV


LELC - Murcia San Javier

ULTIMO METAR :
  • 232100Z 04011KT 010V070 CAVOK 20/16 Q1016 NOSIG

METARs OBSOLETI :
  • 232000Z 04011KT CAVOK 20/16 Q1016 NOSIG
  • 231900Z 03011KT 010V070 CAVOK 21/16 Q1016 NOSIG

TAF TAF LELC
Valido dal 23 a 18 ore il 24 a 18 ore UTC


231700Z 2318/2418 03008KT 9999 FEW030 TX24/2414Z TN16/2404Z
BECMG 2404/2408 05018KT
TEMPO 2408/2418 05020G30KT
Nessun NOTAM noto per questo aeroporto.



MetMap, La meteo Aeronautica in un colpo d'occhio ! - Copyright ORBIFLY Dicembre 2007 - Disclaimer

ORBIFLY MET'MAP TEAM :

Programmazione e sviluppo : Alexandra Zaïnal
Concezione e sviluppo : Baudouin d'Aumeries
Co-Programmazione e sviluppo : Marc-Olivier Méhu
Supporto tecnico e logistico : Manuel Goepfert
Aiuto per la traduzione : Arnaldo La Scala

Contatto : metmap@orbifly.com




FONTI E CREDITI :

   NOAA